GFSSW_925_temp_000.txt.gz
Temp
8 8 8 8 8 8 9 9 9 9 9 10 10 11 11 12 15 17 16 22 26 25 24 24 22 22 22 22 22 21 20 20 21 22 24 25 27 26 29 28 29 28 27 27 28
7 7 7 8 8 8 8 8 8 9 9 9 9 10 11 12 13 12 22 23 25 25 23 22 21 22 20 21 21 21 19 21 24 24 24 24 25 25 26 26 26 27 27 28 25
7 7 7 7 7 7 7 8 8 8 8 9 9 9 10 11 12 17 24 24 23 23 23 24 23 21 20 20 21 20 23 24 25 25 25 24 24 26 26 26 27 26 27 26 22
7 7 7 7 7 7 7 7 8 8 8 8 9 9 9 11 17 22 21 21 23 20 21 22 21 20 19 20 22 21 22 24 25 25 24 24 25 25 25 26 27 27 25 25 21
7 7 7 7 8 7 7 7 7 7 7 8 8 9 9 9 12 22 22 20 20 19 20 22 21 20 19 20 22 21 22 24 23 23 24 24 24 25 26 27 26 25 24 23 21
7 7 7 7 7 8 8 8 8 8 7 7 8 9 9 9 15 19 19 19 20 21 20 20 21 22 22 22 21 21 22 23 23 24 25 24 25 25 26 27 25 25 24 23 21
7 7 7 7 7 7 7 8 8 8 8 7 8 8 9 10 14 16 18 16 18 21 20 21 22 23 21 22 22 22 21 21 23 25 24 25 24 25 27 26 24 25 25 23 21
7 7 7 7 7 7 7 7 8 9 7 7 8 8 9 12 13 14 19 19 19 19 20 22 23 21 22 22 22 23 22 21 24 24 24 24 23 26 26 25 25 25 25 23 21
7 7 7 7 7 7 7 7 9 9 7 7 8 8 9 12 12 15 14 15 20 20 20 21 22 20 21 21 20 19 21 21 22 24 24 23 24 26 25 26 24 24 23 23 22
7 7 7 7 7 8 7 8 10 9 8 8 9 9 9 13 14 16 17 15 19 19 19 20 19 18 17 18 20 19 19 20 22 25 23 22 22 25 25 25 23 23 22 22 21
6 7 7 7 7 7 7 8 8 9 9 9 9 10 12 14 14 17 17 15 18 19 18 18 19 19 20 20 21 21 21 21 22 24 24 22 22 23 24 23 23 24 24 23 22
6 7 7 7 7 7 6 5 9 8 7 10 10 11 12 13 12 14 18 16 17 18 20 19 19 21 21 20 20 20 20 21 22 24 23 22 22 23 24 24 23 25 25 24 22
7 7 7 7 7 7 6 7 8 8 7 10 12 11 11 12 11 13 15 17 17 18 20 20 22 22 21 20 20 20 20 21 21 24 23 22 22 23 24 23 23 23 21 21 20
7 7 6 7 7 6 5 8 8 7 8 10 11 12 13 13 12 15 18 18 18 18 20 20 22 22 20 21 21 20 22 22 22 22 20 22 18 21 22 24 23 24 23 22 21
7 7 6 6 6 7 8 8 8 8 8 14 14 15 14 13 15 16 16 18 18 18 19 19 21 21 21 22 22 21 24 22 22 21 20 21 19 22 22 22 24 23 23 22 21
7 6 6 6 5 7 7 7 8 8 9 13 15 13 14 14 15 16 16 17 19 19 19 20 22 22 21 23 23 23 23 21 19 18 19 21 20 20 21 24 25 24 24 23 18
7 7 6 6 6 7 7 6 7 7 13 13 12 13 14 13 15 15 15 15 17 17 17 19 20 22 22 21 22 22 19 17 15 15 18 21 20 23 22 22 24 25 23 19 16
7 7 7 6 6 6 6 6 7 10 11 13 12 13 14 13 12 13 15 15 17 19 19 18 18 20 21 21 21 22 20 16 18 18 20 20 20 23 23 24 23 23 22 16 14
7 5 7 7 7 6 5 6 7 10 11 10 11 12 13 13 12 11 12 15 17 18 19 18 19 22 23 24 23 21 19 21 20 20 19 19 21 24 24 25 25 23 19 16 14
5 5 6 6 7 7 7 7 8 10 11 11 9 11 10 12 11 9 12 13 13 15 19 20 19 21 22 23 23 21 21 20 19 18 20 20 21 22 26 25 25 21 18 15 14
5 4 7 6 6 6 6 7 8 10 11 10 10 10 11 11 11 9 10 12 10 12 14 19 19 21 20 21 21 20 20 19 20 17 18 18 20 20 24 24 24 21 18 15 15
4 4 7 7 6 5 6 7 9 9 10 10 10 10 10 12 11 9 9 9 8 11 12 12 15 18 20 21 23 23 22 19 21 18 19 19 19 23 22 22 21 21 18 15 15
5 5 7 7 6 5 7 7 8 9 9 10 9 11 11 11 10 11 10 10 9 10 11 12 13 16 18 21 21 21 22 23 18 17 20 22 21 23 21 22 21 19 17 15 15
5 4 3 4 5 6 6 6 7 9 9 10 9 10 10 11 11 10 11 11 9 11 12 11 11 14 19 20 19 20 22 22 21 19 19 22 24 25 25 22 21 18 16 15 15
2 4 5 6 3 6 5 5 6 7 8 9 9 9 9 9 9 9 10 10 10 10 10 10 10 13 14 18 21 21 22 22 21 23 21 23 22 23 24 22 20 17 16 16 16
4 5 4 6 6 7 6 6 7 7 8 8 8 9 9 9 9 8 10 10 9 10 10 9 10 11 13 18 20 21 21 22 23 23 23 24 22 23 23 19 19 19 18 18 18
6 6 5 6 5 5 6 6 7 7 8 8 8 7 8 10 10 10 10 11 10 10 10 9 10 11 12 14 19 19 22 21 22 23 24 22 26 22 22 21 20 18 19 19 19

GFSSW_925_temp_003.txt.gz
Temp
7 7 7 7 7 8 8 8 8 8 9 9 9 9 11 12 14 17 18 22 24 24 23 21 20 22 23 25 25 24 26 27 27 27 30 29 30 29 30 30 30 30 31 32 27
8 8 7 7 7 8 7 7 8 8 8 8 9 9 10 11 12 13 22 22 25 23 21 23 22 22 24 25 25 26 26 27 29 29 29 29 27 28 29 30 30 30 31 29 27
7 8 8 8 8 8 7 7 7 8 8 8 8 9 9 11 15 20 19 21 21 20 22 23 24 24 24 24 25 26 26 28 28 29 27 28 28 29 29 29 31 30 30 31 30
7 7 7 7 7 8 8 8 8 7 7 7 8 8 9 11 20 19 21 19 20 18 20 23 24 23 25 24 26 25 26 27 28 28 27 27 28 27 29 29 30 30 30 30 30
7 7 7 7 7 7 7 7 8 7 7 7 7 8 9 11 16 19 19 19 19 18 20 23 23 24 24 25 25 24 26 27 27 27 27 27 26 27 28 29 30 30 29 29 29
7 7 7 7 7 7 7 7 7 8 8 7 7 8 9 9 14 17 18 17 19 20 21 22 23 25 25 24 24 27 26 27 27 27 27 27 27 28 28 29 29 29 29 30 30
7 7 7 7 7 7 7 7 7 8 7 7 7 8 9 11 13 14 16 14 16 18 21 22 23 23 25 24 26 25 25 25 25 26 26 26 26 27 29 29 29 29 29 29 29
6 7 7 7 7 7 7 8 8 9 7 7 8 8 10 11 12 12 14 13 15 17 16 19 22 23 23 24 24 24 24 25 27 26 27 26 27 30 30 29 29 29 29 28 29
6 7 7 6 7 7 7 8 9 9 8 8 8 8 10 11 12 13 13 14 18 17 18 20 22 22 23 22 23 23 25 24 26 26 27 26 28 30 29 28 28 28 29 28 28
7 7 7 7 7 7 7 8 10 9 8 8 9 10 12 15 14 14 15 14 16 19 19 20 22 22 22 23 23 24 23 24 24 27 27 28 27 28 27 27 27 28 28 28 28
6 7 7 7 7 7 7 8 11 11 10 11 11 11 13 14 14 15 14 15 15 20 20 21 21 22 23 23 24 25 25 25 27 27 26 27 27 27 27 28 28 28 28 28 28
6 7 7 7 7 7 7 8 8 7 8 11 11 12 12 13 12 15 15 15 16 18 21 21 21 23 24 23 23 23 23 24 25 25 25 26 26 27 27 27 28 28 28 28 28
7 7 7 6 7 6 6 7 7 7 8 11 12 12 13 12 11 13 15 16 17 18 20 22 23 23 23 23 22 23 23 24 24 26 25 25 25 26 28 27 28 28 28 28 27
6 7 6 6 6 6 7 7 7 7 9 12 12 13 14 13 12 14 15 17 18 18 20 22 24 23 23 23 23 22 24 24 24 23 24 25 24 26 27 27 28 28 28 28 28
6 6 6 6 6 7 7 7 7 8 10 14 14 15 16 14 15 17 15 16 17 19 20 21 22 23 22 23 24 23 24 23 23 23 24 24 23 25 27 26 28 29 29 29 28
6 6 6 6 5 6 6 7 7 9 9 13 15 13 15 16 16 16 16 16 19 18 20 22 24 24 24 24 24 24 24 24 23 24 22 24 23 24 26 27 28 29 30 28 26
7 8 6 5 7 6 6 8 9 9 13 13 12 13 14 14 14 15 14 14 16 17 18 21 22 23 24 23 24 23 23 22 22 22 22 25 24 24 27 28 28 28 30 27 22
7 7 6 6 6 5 5 8 7 11 11 13 12 13 14 14 13 12 13 15 16 19 20 20 19 22 24 24 23 23 23 23 22 23 25 23 23 24 27 28 28 29 28 25 21
6 5 7 6 6 5 7 7 10 11 11 11 12 12 13 14 13 12 12 12 17 18 18 20 21 23 24 25 25 23 22 25 24 23 24 24 24 26 27 27 28 27 25 23 21
5 5 6 6 6 6 7 8 9 10 11 11 10 12 11 12 12 11 9 10 10 13 14 18 20 23 23 25 25 25 25 22 23 22 22 24 24 26 28 29 29 28 26 22 21
5 7 7 6 6 5 7 8 8 11 11 10 10 10 11 11 11 9 9 9 8 10 12 16 19 22 23 23 24 23 23 24 24 24 23 23 26 28 29 30 30 29 26 23 21
6 7 7 7 8 6 7 8 8 10 11 10 11 10 10 11 11 10 9 9 9 8 10 14 17 20 23 25 26 25 25 24 23 21 24 22 25 26 27 28 27 27 24 22 22
6 5 7 6 6 7 8 8 8 9 10 10 10 11 11 11 10 11 10 10 9 9 10 13 17 20 21 22 24 24 25 24 23 24 23 23 26 27 27 27 26 25 23 21 21
6 6 7 7 7 6 6 8 8 10 10 10 10 11 10 11 11 10 10 10 8 9 10 12 14 17 23 23 23 23 23 24 24 24 24 24 27 28 29 29 26 24 22 23 22
5 7 6 6 7 6 7 7 7 8 10 10 10 9 8 9 10 9 8 9 10 8 12 12 14 15 18 18 22 23 23 24 23 24 23 25 25 27 28 28 26 24 22 22 22
6 7 7 7 7 7 8 8 8 9 8 9 9 10 9 9 9 9 9 9 9 11 12 12 14 14 18 20 21 22 23 24 24 24 24 25 26 28 29 26 24 23 22 23 23
6 6 5 7 6 6 8 7 7 6 9 9 9 8 9 10 11 11 11 11 11 11 11 12 13 14 19 18 21 22 22 24 24 24 25 25 26 28 28 28 26 24 23 24 24

GFSSW_925_temp_006.txt.gz
Temp
8 8 8 8 8 8 8 8 7 8 8 8 9 9 10 12 15 17 21 23 24 23 23 23 23 25 26 29 30 31 30 31 32 33 33 35 34 34 34 33 34 34 34 35 33
7 8 8 8 8 8 8 8 8 8 8 8 8 8 9 11 13 19 21 21 22 22 23 25 27 26 28 29 30 29 30 32 34 34 34 35 34 34 32 33 34 35 36 35 34
7 8 8 8 7 7 7 8 8 8 8 8 8 8 9 10 18 25 19 19 20 20 23 25 28 28 28 30 30 30 30 33 34 34 34 33 33 34 33 32 33 34 34 35 34
7 7 7 7 7 7 7 7 8 8 8 8 8 8 9 13 23 20 19 18 20 20 21 25 27 28 28 29 30 29 31 32 33 34 34 32 32 32 33 32 33 34 34 34 34
7 7 7 7 7 7 7 7 7 7 7 8 8 7 11 16 20 21 19 18 20 20 23 27 27 28 28 29 30 30 30 32 33 32 32 32 31 32 32 32 33 33 33 33 34
7 7 7 7 7 7 7 7 8 8 8 7 8 8 12 14 18 18 17 18 20 22 23 25 27 28 29 30 30 31 31 31 32 32 32 31 31 32 32 32 32 33 33 34 34
7 7 7 7 7 7 7 7 8 9 9 7 8 8 12 15 16 17 17 17 18 20 25 25 26 26 28 27 30 30 29 30 30 31 31 31 30 30 33 32 32 33 34 34 34
6 7 7 7 7 7 7 8 9 9 8 7 8 9 13 15 15 15 17 18 18 18 19 23 24 26 27 28 28 28 29 28 30 30 30 30 29 32 34 34 34 33 33 33 33
7 7 7 7 7 7 7 8 9 9 9 8 9 10 15 15 15 16 16 17 19 20 19 21 23 25 26 25 26 28 27 29 30 32 31 30 29 32 34 33 32 32 33 33 33
7 7 7 7 7 7 8 9 10 9 10 11 12 12 16 17 17 17 17 17 18 21 21 22 24 24 25 26 26 27 28 28 29 32 31 30 30 31 33 33 32 32 32 33 32
6 7 7 7 7 7 8 12 15 15 14 16 17 16 18 18 18 17 18 18 18 19 21 23 23 25 26 26 27 28 29 29 30 31 30 30 30 31 32 32 31 32 32 32 32
6 6 6 7 7 7 8 13 12 11 12 15 16 15 15 15 15 17 17 18 19 19 22 24 23 26 27 27 27 27 27 28 30 30 30 29 29 30 31 31 31 31 32 32 33
6 6 7 6 7 8 10 10 10 10 12 15 17 16 17 16 16 16 18 19 19 19 22 23 25 27 27 27 26 27 26 27 27 29 29 28 27 28 30 31 32 32 32 32 32
7 7 6 6 9 10 11 10 10 10 11 16 16 16 17 16 15 18 18 18 19 19 21 23 26 27 27 27 27 26 27 27 27 27 26 29 27 29 30 30 31 31 32 33 33
7 7 6 5 8 10 10 9 10 10 12 16 16 17 18 17 18 19 19 18 18 20 22 22 24 25 26 27 27 27 27 27 27 26 26 27 27 28 30 30 30 31 32 33 34
7 6 5 9 7 9 9 9 10 10 13 16 17 16 17 18 18 19 18 18 19 19 21 22 26 26 27 28 28 28 26 27 27 26 25 27 27 28 30 30 31 33 33 33 33
7 6 6 8 10 8 9 11 10 12 16 15 15 16 16 17 17 17 17 18 17 17 18 21 23 25 27 27 27 27 26 25 24 25 25 29 28 29 30 31 32 32 32 32 30
7 7 8 8 7 7 8 10 10 14 14 16 15 15 15 17 17 15 17 17 19 18 21 20 20 23 26 27 26 26 26 27 24 26 28 29 27 29 30 32 32 33 33 32 29
7 9 10 8 7 7 8 9 13 13 13 13 14 14 16 16 16 15 16 13 15 19 18 21 22 25 26 27 28 26 27 28 28 28 27 29 29 30 31 31 32 32 32 31 28
8 10 11 8 7 6 7 10 12 13 13 13 12 14 14 15 15 14 13 9 10 15 20 18 20 25 25 27 28 28 28 26 28 25 25 28 28 28 30 32 32 33 32 29 28
9 12 10 8 8 9 9 11 12 13 13 12 13 13 13 13 14 13 12 12 9 13 15 18 19 24 25 25 26 27 27 27 28 28 27 26 28 30 30 32 33 33 32 29 28
10 12 10 9 10 10 10 11 11 12 13 13 13 13 13 13 14 14 12 12 11 12 12 18 18 20 24 27 28 28 28 27 27 26 27 27 27 32 31 31 31 33 30 29 28
10 10 10 10 8 8 10 11 12 12 12 12 12 13 13 13 12 13 14 13 10 9 10 15 18 20 24 26 27 27 27 28 28 28 26 27 28 32 31 32 31 31 29 28 28
11 11 12 11 10 8 9 11 12 13 13 12 13 12 13 13 13 11 9 10 10 9 9 11 17 20 24 25 26 26 27 28 27 27 27 28 29 31 32 31 31 29 29 29 28
11 11 10 10 10 9 10 9 9 9 13 13 12 12 12 12 13 8 9 9 11 10 11 14 17 20 22 23 24 26 26 27 27 27 27 28 28 30 32 31 31 30 29 29 28
9 8 9 10 10 9 10 10 10 10 8 11 12 12 13 12 13 12 13 12 11 13 12 14 19 20 20 23 24 26 27 27 27 27 28 28 29 31 31 31 30 29 29 29 28
7 8 6 9 9 8 9 9 8 8 9 11 11 11 11 13 13 14 14 13 13 12 11 11 15 19 20 23 23 25 26 27 27 27 28 27 29 27 28 28 28 28 29 29 29

GFSSW_925_temp_009.txt.gz
Temp
8 8 8 8 8 8 8 8 8 9 9 8 8 8 10 12 15 19 22 25 25 24 24 25 26 27 27 30 31 32 31 31 33 34 35 38 37 38 38 36 37 37 37 37 36
7 8 8 8 8 8 8 8 8 8 9 9 8 9 10 12 14 21 23 23 23 23 24 27 28 28 29 30 31 31 31 32 35 36 36 37 37 38 37 36 36 36 37 37 37
7 7 7 7 7 7 7 8 8 8 8 9 9 9 11 12 20 27 19 21 21 21 23 27 29 30 29 31 32 31 31 33 35 36 36 36 36 37 36 35 36 36 36 37 37
7 7 7 7 8 7 7 8 8 8 8 8 8 8 11 13 24 21 19 20 20 20 21 24 29 30 30 30 32 31 33 33 34 35 35 35 36 36 36 35 36 36 36 36 36
7 7 7 7 7 7 7 8 8 8 8 8 8 8 12 19 21 23 21 21 21 24 24 26 28 30 30 31 32 32 33 34 35 35 35 36 35 35 35 36 36 36 35 35 36
7 7 7 7 7 7 8 8 9 9 9 8 8 8 12 16 21 21 21 21 22 24 26 27 29 31 31 31 32 33 33 33 34 34 35 34 34 35 35 35 35 35 35 35 36
7 7 7 7 7 7 8 8 9 9 9 8 8 9 14 17 19 20 20 21 22 23 25 27 28 30 31 30 33 33 32 33 33 34 34 34 32 33 35 35 35 35 36 36 36
7 7 8 7 7 7 7 8 9 9 10 8 8 11 14 18 19 20 20 21 21 22 22 24 27 29 29 31 31 31 31 30 32 33 34 33 30 33 35 35 34 35 36 36 36
7 7 7 7 8 8 9 11 11 10 10 9 10 12 17 18 18 19 19 20 21 22 23 23 24 26 28 28 28 30 29 30 31 34 33 33 31 33 35 34 34 34 35 35 35
7 7 7 7 7 8 8 11 12 10 11 12 14 16 18 19 21 19 19 20 21 22 24 24 24 25 26 28 27 28 29 30 30 33 34 33 33 34 35 34 34 34 35 35 35
6 7 7 7 7 8 9 14 17 17 16 18 19 18 20 21 20 20 20 20 21 21 22 24 23 24 26 27 29 30 30 31 32 34 33 32 32 34 34 33 33 34 34 35 34
7 7 7 7 8 9 9 16 15 14 14 17 18 19 19 19 19 20 20 20 20 20 22 24 23 26 28 29 28 29 29 30 31 33 32 32 31 32 33 33 33 33 33 34 34
7 7 7 8 9 10 14 14 13 14 14 17 19 20 21 20 19 20 21 20 20 21 22 23 25 27 27 28 28 29 28 29 30 31 32 31 30 31 32 32 33 33 33 33 34
7 7 6 8 10 13 15 13 13 14 13 18 19 19 19 20 19 21 21 21 21 20 22 23 25 27 27 27 28 28 30 30 29 29 28 31 29 31 32 32 33 33 34 34 34
7 7 6 6 9 13 13 13 13 13 13 19 19 20 20 20 21 21 21 20 19 21 22 22 24 25 26 27 29 29 30 30 30 29 29 29 29 30 32 32 33 33 34 34 34
7 6 5 12 11 11 13 12 13 11 13 18 19 18 19 20 20 21 21 21 21 20 21 23 25 26 26 28 30 30 30 30 30 29 27 29 29 29 31 33 33 34 34 35 35
8 8 7 10 12 12 11 13 10 12 17 15 15 17 17 18 19 20 20 19 18 18 19 21 23 26 27 26 29 29 28 27 26 27 27 30 29 30 33 34 34 34 34 34 34
9 9 10 11 11 11 10 10 11 15 16 17 17 17 17 19 19 20 19 18 20 20 20 20 20 23 26 27 27 29 28 27 25 27 28 30 29 31 34 34 34 34 34 34 32
9 12 11 11 10 11 10 9 11 15 16 15 16 14 16 17 18 18 18 18 17 16 14 21 22 25 26 28 28 28 29 30 30 30 30 32 32 33 34 34 33 34 34 34 31
9 14 12 12 9 11 11 12 15 15 15 15 13 15 14 16 17 18 17 14 16 16 16 17 20 24 26 27 28 29 30 28 30 28 28 31 31 31 32 33 34 34 34 33 31
10 14 13 12 11 11 11 14 15 16 15 13 14 14 15 14 15 16 16 17 14 16 17 18 16 21 25 25 26 29 29 29 29 30 29 29 30 33 32 33 34 35 35 32 31
14 15 13 13 10 12 12 14 14 16 16 15 13 15 14 14 14 17 14 17 15 14 13 19 16 17 23 27 28 29 29 29 29 28 30 31 31 34 33 33 34 34 33 32 31
14 16 14 13 10 10 13 15 15 14 15 15 14 15 16 14 12 14 14 10 13 11 10 13 16 16 20 25 28 28 29 30 29 31 29 29 31 33 33 33 33 34 33 32 31
15 15 16 15 13 11 12 13 13 15 15 15 15 15 13 14 15 10 12 11 11 10 10 10 14 16 20 24 27 27 29 30 29 29 30 30 32 32 33 32 32 32 32 32 31
15 15 13 13 12 11 12 12 13 12 13 14 15 15 14 14 16 14 13 15 13 12 9 11 15 18 17 21 28 28 29 30 29 29 30 31 31 32 33 32 32 32 32 31 31
12 11 13 11 12 12 13 12 12 13 11 13 12 14 15 14 14 14 15 15 12 14 10 12 16 18 16 18 24 28 28 30 30 30 30 31 31 33 34 33 31 31 32 31 31
11 10 9 11 12 11 12 12 11 12 13 13 13 13 13 15 15 16 16 16 15 14 13 12 15 17 15 19 25 25 28 29 29 30 30 30 31 31 30 29 29 29 31 32 31

GFSSW_925_temp_015.txt.gz
Temp
7 8 8 8 8 8 8 8 8 8 9 10 12 13 12 12 13 13 14 21 23 24 24 24 24 24 25 25 26 27 22 23 26 27 30 32 33 34 36 35 35 34 34 33 35
7 7 7 7 8 8 8 8 8 8 8 9 11 12 13 12 12 13 22 22 22 24 23 23 24 26 24 25 26 25 23 25 27 28 29 31 32 33 34 33 33 34 35 34 35
7 7 7 7 7 7 8 8 8 8 8 8 9 11 12 11 12 19 22 23 21 23 23 24 25 26 25 26 26 26 25 27 28 29 30 30 31 33 33 32 33 32 33 33 34
7 7 7 7 7 7 7 8 8 8 8 8 8 9 11 10 16 22 21 22 23 22 23 24 24 23 23 24 27 25 27 28 28 29 29 29 32 32 32 31 32 33 33 33 31
8 8 7 8 9 9 9 9 9 9 9 8 8 8 8 12 13 20 20 21 22 22 22 22 21 21 21 24 26 26 27 28 29 29 30 30 31 31 32 33 33 33 33 31 30
7 7 7 7 8 9 9 10 10 10 10 9 7 8 8 8 15 18 20 21 22 23 22 22 22 22 22 23 24 26 27 28 29 29 30 30 31 31 32 32 33 33 32 31 30
8 8 9 10 10 10 10 10 10 10 10 10 8 8 10 10 16 19 18 17 19 20 22 24 25 24 23 22 25 25 25 27 28 29 30 31 30 30 32 31 32 31 32 31 31
7 7 8 9 10 10 11 11 12 11 9 11 8 9 9 16 15 15 18 18 20 21 21 22 23 22 23 23 24 24 25 24 27 28 30 30 28 30 31 32 31 32 33 33 29
7 7 8 9 9 10 10 11 13 14 11 11 8 9 11 18 16 17 17 18 20 21 22 23 23 21 21 21 21 22 22 23 25 28 29 28 28 30 31 31 31 31 32 32 32
7 8 8 9 10 10 11 13 16 14 13 11 12 12 14 18 20 21 20 20 21 21 21 20 20 20 20 19 19 22 23 24 25 27 28 28 28 30 30 31 31 31 31 31 31
8 8 8 8 10 10 10 11 14 13 14 15 16 15 17 19 19 21 21 21 21 20 17 19 18 18 20 21 22 24 24 25 26 28 27 27 28 29 30 31 30 30 27 28 27
8 9 9 10 10 13 12 10 16 15 13 16 16 17 18 18 18 19 20 19 19 17 19 18 17 20 22 22 22 22 22 23 26 28 27 27 27 29 29 29 28 28 27 27 28
9 9 8 11 11 13 13 15 15 15 12 14 16 17 17 18 17 18 20 19 18 17 18 17 19 22 22 22 22 22 22 23 24 25 27 26 26 27 29 29 29 29 28 28 30
8 9 8 10 12 12 14 14 14 14 10 14 18 19 18 18 17 20 21 20 19 17 18 18 20 21 21 21 23 21 24 25 25 24 23 26 24 26 27 28 29 29 29 28 29
8 9 9 10 10 11 14 14 14 14 9 13 15 17 19 18 20 20 22 20 19 19 18 18 19 20 20 22 24 22 25 24 25 24 24 25 23 26 26 27 27 29 28 28 28
8 9 9 11 10 13 13 13 13 10 10 12 16 18 18 18 19 20 21 21 21 19 19 19 21 20 20 22 23 24 23 24 24 23 21 24 24 26 26 27 28 28 29 30 29
8 10 10 10 11 13 13 13 10 9 14 15 17 18 18 16 18 19 19 17 16 17 16 18 19 21 22 20 21 22 21 19 19 20 21 25 24 26 26 27 29 28 27 27 23
8 11 12 12 13 13 13 10 10 13 14 17 17 16 15 13 13 14 16 16 19 19 16 16 16 19 22 20 19 20 21 19 18 20 22 25 24 25 29 29 28 30 29 25 24
8 11 12 14 13 13 10 10 9 12 14 15 16 14 14 15 12 13 13 15 18 18 15 14 16 19 19 20 21 20 19 23 21 22 23 24 26 27 29 29 28 29 27 24 23
5 9 13 14 14 13 10 11 13 12 13 12 13 15 13 14 14 11 12 14 12 13 14 15 14 18 19 20 20 20 23 20 21 20 20 24 25 25 27 28 28 27 25 24 24
8 11 14 14 14 10 8 11 14 11 13 12 14 14 14 13 13 14 14 14 12 12 11 13 14 15 17 17 17 19 20 20 21 21 21 21 23 28 28 27 28 26 26 25 24
10 11 15 15 11 10 9 13 14 14 15 15 15 12 14 14 14 14 12 13 14 11 11 12 11 12 15 18 19 18 19 21 19 21 22 22 24 28 31 29 28 26 26 25 24
7 12 15 15 9 9 12 14 14 14 14 14 14 14 11 12 11 12 12 15 13 13 13 12 11 11 15 17 18 18 20 22 21 21 22 23 24 30 29 28 28 26 26 25 25
9 11 12 12 12 11 12 12 13 15 15 15 14 10 10 11 13 13 12 15 14 14 14 11 11 11 11 15 14 14 15 18 22 21 23 24 26 28 28 28 27 26 26 25 25
9 11 11 9 9 11 11 12 13 13 14 14 13 13 12 11 12 12 12 13 14 13 11 10 10 12 13 15 15 13 14 15 16 22 23 25 26 28 26 26 27 26 26 26 25
10 10 10 9 11 11 11 11 11 13 12 12 10 11 11 10 11 10 13 12 12 14 11 9 10 12 12 15 15 14 15 15 15 18 24 26 27 28 27 28 27 27 27 26 26
10 10 9 9 10 10 11 12 12 12 13 13 12 10 11 11 13 12 13 13 13 13 13 12 11 11 12 15 13 14 15 16 17 19 24 25 27 27 25 24 23 26 27 27 26

GFSSW_925_temp_021.txt.gz
Temp
7 7 7 7 7 7 7 8 8 8 8 9 9 8 8 9 12 12 11 18 21 23 22 22 22 22 22 21 22 22 20 20 23 24 26 27 29 31 31 31 29 30 32 31 35
7 7 7 7 7 7 7 7 8 8 8 8 8 9 8 9 10 10 19 19 19 20 21 20 22 22 20 21 21 20 18 21 23 26 26 27 28 29 31 30 29 29 30 32 33
7 7 7 7 7 7 7 7 7 8 8 9 9 9 8 9 9 14 17 16 16 16 18 20 22 22 20 20 20 20 22 23 24 25 26 26 27 27 28 27 29 28 29 30 30
7 7 7 7 7 7 7 7 7 7 8 8 8 7 8 9 14 19 19 19 18 18 15 18 20 20 18 20 21 21 22 24 24 25 25 25 26 27 26 27 28 29 29 28 29
7 7 7 8 8 8 7 8 10 9 7 7 7 7 8 7 9 20 18 17 17 18 16 18 19 19 18 19 21 21 22 23 23 23 24 25 25 26 26 27 28 28 28 28 27
8 8 9 9 9 9 11 12 11 11 10 7 7 7 8 7 14 16 15 15 15 16 16 17 18 19 19 19 21 21 22 22 22 23 23 24 25 26 27 28 28 28 28 27 26
7 7 7 7 7 7 10 12 13 13 11 8 8 8 9 9 14 14 14 12 14 13 15 17 19 20 19 20 20 20 20 22 22 22 23 25 25 25 27 28 28 28 29 28 25
6 6 8 9 6 9 12 13 14 14 13 9 8 8 9 12 13 12 12 14 14 15 14 17 18 18 19 19 20 20 19 19 22 23 23 25 23 27 27 27 27 27 26 27 27
6 7 8 8 6 7 11 14 14 14 13 11 9 8 8 13 13 16 14 12 15 16 17 19 19 17 19 17 17 17 17 18 21 23 23 24 24 26 26 27 26 27 27 27 26
6 6 8 9 10 11 13 14 14 13 12 10 10 9 12 14 15 16 15 15 15 16 17 17 17 16 14 15 17 17 18 20 20 22 23 23 23 25 25 25 25 25 26 27 27
6 8 9 10 11 11 13 13 11 10 12 11 13 13 13 15 15 15 16 16 16 16 15 16 14 15 17 17 18 18 18 19 21 22 22 22 22 23 24 24 25 26 26 26 24
7 9 10 11 11 12 11 10 11 11 9 12 13 14 15 15 14 15 16 14 15 14 16 15 15 17 18 18 18 17 17 17 19 20 21 20 20 22 23 24 24 25 25 25 25
8 9 9 11 12 12 11 12 12 12 9 11 14 15 16 15 14 14 16 15 14 13 14 14 16 18 18 17 17 17 17 17 18 20 21 20 20 21 23 23 24 24 23 23 23
8 10 10 11 12 11 11 13 12 11 7 12 15 17 17 16 15 17 16 15 15 14 14 14 16 16 16 16 17 16 18 19 19 19 17 22 19 22 23 24 23 24 22 22 24
8 8 10 9 10 8 13 12 12 11 10 15 15 17 17 16 17 16 16 16 14 14 15 14 16 16 16 17 17 17 18 18 19 18 18 18 17 21 21 22 23 25 24 24 22
8 9 8 9 9 13 12 11 11 8 8 13 14 13 13 15 16 16 15 16 16 15 15 15 17 17 16 18 18 19 18 17 18 16 15 18 18 21 21 22 22 22 22 23 22
8 10 10 10 11 13 12 9 8 7 12 12 12 13 12 14 15 15 15 14 13 12 12 15 16 17 18 16 17 18 15 13 14 14 16 19 19 21 21 22 23 22 22 22 22
11 12 12 13 13 12 10 8 8 10 10 13 12 12 13 13 13 14 13 12 13 12 11 12 13 16 18 17 16 14 14 13 15 15 17 20 18 19 21 23 24 24 25 22 22
12 12 12 14 13 12 6 6 7 10 11 12 11 11 12 13 13 13 13 12 12 12 12 12 14 17 18 18 17 16 14 16 15 16 16 17 19 21 23 25 24 23 22 21 18
10 9 12 13 13 11 6 9 10 11 13 12 10 11 10 11 11 11 12 13 13 12 12 13 12 15 17 17 17 16 17 15 13 15 15 17 18 20 22 22 23 23 22 19 17
9 8 13 13 13 6 5 7 10 13 13 12 11 11 12 11 11 11 12 13 13 13 11 11 11 13 15 15 14 15 15 15 15 15 15 16 17 19 22 22 22 24 21 17 17
5 9 12 12 8 4 5 10 11 12 12 12 11 11 11 10 10 11 12 13 13 12 11 11 9 9 12 15 16 16 15 14 13 15 14 16 18 22 23 22 21 21 20 18 17
5 5 12 12 5 3 7 10 11 11 11 12 11 12 10 10 9 10 12 14 12 11 11 11 9 9 11 12 13 14 15 14 13 13 14 16 18 21 22 21 22 19 19 18 18
6 6 6 4 6 7 7 8 9 11 11 11 10 11 10 10 9 9 11 13 12 12 13 10 8 9 9 11 12 12 14 14 13 11 15 17 18 20 21 18 20 20 19 18 18
4 6 7 5 6 6 7 8 9 10 10 9 10 10 9 9 9 9 10 11 12 12 10 9 8 10 10 11 11 12 12 13 13 13 13 15 19 20 17 20 20 19 19 19 19
5 5 7 6 6 7 7 9 9 10 9 8 9 9 9 9 9 9 10 10 10 10 9 8 8 10 10 11 11 12 12 13 14 14 14 15 15 19 19 19 21 20 20 20 19
5 6 6 7 8 8 8 9 9 9 10 10 10 9 9 10 11 10 10 10 10 9 9 9 9 10 10 13 11 12 13 13 14 15 15 15 18 19 19 20 20 20 21 21 20

GFSSW_925_temp_024.txt.gz
Temp
7 7 7 7 7 7 7 7 8 8 8 8 8 8 8 9 11 13 11 17 19 20 19 20 20 21 21 20 21 20 19 19 22 23 26 27 26 28 30 30 30 31 29 31 31
7 7 7 7 7 7 7 7 8 8 8 8 8 8 8 9 11 9 16 15 15 15 15 18 19 20 19 20 20 20 18 20 23 25 26 26 26 26 27 27 29 29 28 31 32
7 7 7 7 7 7 7 7 8 8 8 8 7 7 7 9 9 14 16 15 15 17 16 17 17 21 18 18 19 19 21 22 23 24 25 25 25 26 26 26 27 28 28 29 29
7 7 7 7 7 7 7 7 7 7 7 7 7 7 7 10 15 17 16 17 17 17 17 16 17 19 17 19 19 19 20 23 23 24 25 24 25 24 25 26 26 27 27 26 26
6 7 7 7 7 7 7 7 8 9 7 8 7 8 8 7 9 16 16 15 15 16 16 15 16 18 17 17 20 20 21 22 23 23 23 24 23 24 25 26 26 26 27 25 24
6 6 6 7 8 9 11 12 12 10 8 8 8 8 8 7 15 15 15 14 13 13 14 15 15 18 18 18 20 20 21 21 21 21 22 23 24 24 25 25 25 26 26 26 25
6 6 8 9 8 10 11 13 14 13 12 9 8 8 9 8 15 14 13 13 13 11 12 15 17 15 17 18 18 19 19 20 20 20 21 23 23 24 25 26 26 26 26 26 25
6 7 9 9 9 10 12 13 14 13 13 12 8 8 7 13 13 13 14 15 14 14 11 13 16 16 16 18 19 19 18 19 22 20 22 23 23 26 25 25 26 26 26 25 24
6 7 9 9 10 11 12 13 14 12 12 11 9 8 8 14 12 15 15 14 15 15 12 15 15 15 17 16 15 16 19 16 19 21 21 23 23 24 26 25 24 23 24 24 26
6 7 10 10 11 11 13 14 14 12 11 10 9 9 11 14 15 15 15 15 14 14 14 14 14 14 13 15 16 16 16 19 19 20 21 20 22 23 24 24 23 23 23 23 23
5 7 10 11 11 12 13 13 9 9 11 10 12 12 12 14 15 15 16 15 15 14 13 15 13 14 16 16 17 17 17 17 19 20 19 20 21 22 21 21 22 23 24 24 25
6 6 8 11 11 12 12 10 11 10 8 11 11 12 13 14 13 15 16 14 14 13 13 13 13 15 18 16 16 16 16 16 17 19 19 18 18 19 20 20 21 22 22 21 20
7 6 7 11 11 11 10 12 11 10 8 10 12 13 13 15 14 14 15 14 14 13 13 12 14 16 17 16 16 16 16 16 17 18 19 18 19 20 21 21 22 22 22 22 22
8 6 6 12 11 10 11 12 11 10 7 11 14 15 15 14 14 16 15 14 14 13 14 13 14 15 16 15 16 14 17 18 18 17 16 19 17 20 21 21 22 22 22 22 19
6 6 8 7 10 9 12 12 11 10 9 13 14 16 14 14 15 16 17 15 13 13 15 14 16 15 14 15 16 15 17 16 17 16 16 17 15 20 21 20 20 22 23 22 21
7 6 8 9 9 13 11 11 11 8 8 11 13 12 12 13 15 15 15 14 14 13 14 13 16 16 15 16 16 17 16 15 15 14 13 17 16 19 19 21 22 22 20 21 21
10 11 10 10 11 12 11 9 8 7 11 11 11 12 11 11 13 14 14 13 10 11 11 13 14 15 16 15 16 16 13 12 12 12 15 17 16 20 19 20 20 21 21 20 19
12 12 12 13 13 12 11 8 8 10 10 12 12 11 12 12 12 12 12 11 13 12 11 11 12 15 17 15 14 14 13 11 14 14 14 18 16 17 19 20 20 20 20 20 19
12 12 12 12 12 12 7 6 6 9 11 11 11 10 10 12 11 11 11 12 13 12 11 11 11 14 15 15 16 15 13 15 14 15 14 15 16 19 21 22 22 21 20 19 19
9 10 11 12 12 11 6 9 9 10 12 11 10 10 9 10 10 9 10 13 12 12 11 11 12 14 16 16 17 16 15 14 11 14 14 15 16 17 19 20 20 20 20 19 18
9 8 11 11 12 5 5 7 9 11 12 11 11 10 11 11 10 9 11 13 12 12 11 11 10 13 14 14 14 15 13 14 13 12 14 15 15 17 19 21 19 20 20 18 16
5 8 11 12 7 3 5 9 10 11 12 11 10 10 10 10 9 10 10 12 13 12 11 11 9 9 11 13 13 13 14 13 12 14 13 13 14 19 19 17 18 19 17 16 18
6 5 11 11 4 3 6 8 9 10 10 10 9 11 11 10 8 10 10 12 12 10 10 11 9 9 12 12 12 13 13 13 12 11 12 14 15 18 19 18 19 19 17 18 18
6 6 5 3 4 6 7 9 8 11 10 10 9 10 9 9 10 8 9 11 12 11 13 10 7 9 9 12 11 11 12 12 12 11 14 15 15 18 19 16 19 20 17 18 18
3 5 6 4 5 5 6 8 9 10 10 9 8 10 9 9 9 9 9 9 11 12 10 9 9 8 9 10 11 11 11 11 11 12 11 14 14 18 16 17 18 18 17 18 18
4 4 4 3 5 6 8 8 9 10 9 9 9 10 9 9 9 8 9 9 9 9 8 7 9 9 10 11 11 10 11 11 11 12 12 13 14 16 18 16 18 19 18 18 18
5 4 4 5 4 5 6 8 8 9 8 9 9 8 9 10 10 10 10 10 9 9 9 9 8 8 9 11 11 10 11 12 13 13 13 12 15 17 17 18 17 18 18 18 18

GFSSW_925_temp_027.txt.gz
Temp
7 7 7 7 7 7 7 7 8 8 8 8 8 8 9 12 13 10 13 15 15 16 16 17 19 20 20 23 23 23 24 25 26 25 27 28 29 30 31 31 31 32 33 32 29
7 7 7 7 7 7 7 7 7 8 8 8 8 8 8 10 8 10 14 14 15 16 15 18 20 21 22 22 23 24 24 25 27 27 27 28 28 29 29 30 30 30 29 31 31
7 7 7 7 7 7 7 7 7 7 8 8 8 8 8 8 11 16 15 14 16 16 16 16 18 21 21 22 23 24 24 26 26 27 27 28 28 29 29 29 30 30 29 30 30
6 7 7 7 7 7 7 8 9 10 8 8 8 8 9 9 17 15 15 16 15 16 16 16 17 20 21 22 23 23 25 26 26 26 26 26 29 28 28 29 29 28 29 29 29
6 7 8 10 10 10 10 11 11 12 9 8 8 8 8 11 14 16 15 14 14 14 15 16 18 20 21 22 23 22 25 25 25 26 26 26 26 27 27 28 28 28 28 28 29
6 7 9 10 11 11 11 12 12 12 11 9 10 8 9 13 15 15 15 15 14 13 15 16 17 19 19 21 22 24 24 24 25 25 25 25 26 27 27 28 27 28 28 28 28
6 6 7 7 9 11 12 13 13 13 13 11 10 8 10 13 15 14 14 14 15 13 15 14 16 17 19 20 21 22 22 23 23 24 24 25 24 26 27 27 27 27 28 28 29
6 6 7 7 10 11 12 13 13 13 12 11 9 9 12 14 14 15 15 14 14 14 13 14 15 16 17 19 21 20 21 22 24 23 24 24 24 27 29 28 27 28 28 29 29
6 6 6 6 7 11 12 13 13 13 11 10 9 10 15 15 14 15 14 14 15 14 13 14 14 16 18 18 19 20 21 22 23 25 24 24 25 28 28 28 28 28 28 27 28
6 6 6 7 9 11 13 14 12 12 10 9 9 11 14 16 15 15 15 14 15 16 16 16 16 17 18 18 19 20 20 22 22 24 24 24 24 26 27 26 27 27 28 27 28
5 6 6 9 10 11 13 13 13 13 11 12 13 12 14 15 15 16 16 16 16 16 16 16 16 16 18 18 19 20 20 21 22 23 24 23 24 25 26 25 25 26 26 26 27
6 6 6 10 11 11 12 12 12 10 11 12 12 12 13 13 14 17 16 15 15 16 15 16 15 17 17 18 18 18 19 19 20 21 21 22 22 23 23 23 24 24 25 25 26
6 6 6 10 11 11 11 11 11 10 10 12 14 14 16 15 15 16 16 16 15 15 16 15 16 17 17 17 17 18 18 19 19 20 21 21 21 23 24 25 25 25 25 25 25
6 6 6 11 10 10 11 11 10 10 11 14 15 16 16 15 15 17 16 16 15 15 16 15 17 16 17 17 18 17 18 19 19 19 20 21 20 23 24 24 24 25 25 25 25
6 6 6 6 8 10 11 11 10 10 13 14 15 16 16 15 15 17 17 16 14 15 15 15 16 17 17 17 18 17 19 18 18 19 19 20 19 23 25 24 25 25 25 25 26
10 7 9 9 8 11 10 10 10 12 12 13 14 14 14 15 15 16 16 16 15 14 15 15 17 17 17 18 18 19 18 18 19 19 17 19 19 23 24 25 25 26 26 26 26
11 12 12 11 12 11 10 11 12 13 12 13 13 13 13 13 14 14 14 14 12 11 12 15 15 16 17 16 18 17 17 16 16 17 17 21 19 22 24 24 24 25 26 26 26
11 12 12 12 11 11 10 13 12 11 12 13 13 13 12 13 14 13 13 14 13 13 11 12 13 15 17 16 17 17 17 17 16 17 18 20 19 22 23 24 24 24 25 25 25
11 11 11 11 11 11 13 11 11 11 12 12 13 12 12 13 13 13 13 13 14 14 12 12 12 15 16 18 17 17 16 19 17 18 19 20 21 22 23 24 25 25 24 25 25
9 9 10 11 11 11 12 11 11 12 12 12 11 12 12 13 12 12 12 14 14 14 13 13 12 15 14 16 17 16 18 16 17 17 17 20 20 22 23 23 23 24 23 23 23
8 12 11 11 11 11 10 11 11 12 12 12 12 11 12 12 12 12 12 14 14 14 13 13 12 14 15 14 14 12 16 17 18 18 18 19 21 22 23 21 22 23 23 22 21
6 13 11 11 12 6 10 10 10 11 12 11 12 12 11 12 11 12 12 13 14 13 13 13 12 12 14 16 15 15 15 17 17 17 18 18 20 22 21 21 21 23 24 22 20
7 7 10 10 10 9 9 9 10 11 11 11 11 11 12 11 9 10 12 13 13 13 13 12 12 12 15 14 15 15 16 16 16 16 17 18 20 22 22 22 21 22 23 22 19
8 10 10 9 7 8 8 9 10 11 11 11 10 11 10 10 11 10 10 12 13 13 13 12 12 12 12 14 13 13 14 15 14 15 17 18 18 20 21 20 21 22 23 22 19
6 8 7 10 9 8 7 8 9 10 10 11 9 9 9 9 10 11 11 11 12 12 12 10 10 12 12 13 13 13 13 14 14 15 14 17 18 19 19 19 20 21 23 23 19
7 7 7 7 7 7 8 9 9 10 9 9 8 10 9 9 10 10 11 10 9 10 10 9 10 12 12 13 13 13 14 14 14 15 15 15 15 18 18 20 21 22 23 23 20
4 4 6 7 7 7 8 9 9 9 10 10 10 9 9 11 11 11 11 11 9 8 9 9 10 11 11 13 13 12 14 15 15 15 16 15 17 18 18 20 21 22 22 22 21

GFSSW_925_temp_030.txt.gz
Temp
7 7 7 7 7 7 8 8 8 8 9 10 11 12 13 12 11 15 18 17 16 16 17 19 21 22 23 27 28 28 28 29 31 31 31 32 33 35 35 35 35 36 36 35 33
7 7 7 7 7 7 8 8 9 9 10 11 10 11 12 10 13 18 14 14 16 16 19 21 24 24 25 26 27 27 28 30 32 32 30 31 32 34 33 34 34 34 34 33 33
7 7 7 7 7 8 9 9 11 11 11 11 11 11 12 10 17 19 16 15 15 16 18 19 21 25 25 27 27 28 28 31 32 31 30 31 32 33 32 33 35 35 34 33 33
6 7 7 7 7 8 10 11 12 12 13 14 12 11 11 13 21 17 16 15 15 16 19 20 21 23 25 26 27 26 29 29 31 31 29 29 32 32 33 33 35 35 34 33 33
6 7 7 7 7 10 11 11 12 12 13 13 12 11 12 19 19 16 16 15 16 17 19 21 21 22 24 26 27 27 28 29 30 29 29 29 30 31 32 33 34 33 33 32 33
6 6 6 7 7 11 12 12 12 12 13 13 12 11 15 20 17 16 16 16 17 18 19 20 21 23 23 24 26 28 27 28 29 28 29 28 29 30 31 33 32 32 32 32 33
6 6 6 7 7 11 12 12 13 12 12 12 11 11 16 19 16 16 17 16 16 17 20 19 20 21 23 22 25 25 25 27 27 28 28 28 27 29 31 32 32 31 32 32 32
6 6 7 8 10 12 12 13 13 12 12 11 11 13 18 17 16 17 18 18 18 16 17 18 19 21 21 23 23 23 24 24 27 28 28 27 26 30 31 31 31 31 32 32 33
6 6 6 7 11 12 13 13 13 12 11 10 12 15 20 18 19 18 18 18 18 18 17 17 19 20 22 21 22 24 24 25 26 29 27 26 26 29 31 32 31 32 32 33 33
6 6 6 7 10 12 13 13 12 12 11 12 13 16 19 19 18 17 18 18 18 19 19 18 19 20 21 22 22 23 24 25 26 28 28 27 27 28 31 31 31 32 32 32 32
6 6 6 7 12 12 13 15 17 18 17 17 18 17 19 18 18 19 18 18 19 18 18 20 19 20 21 22 22 23 24 25 26 28 27 27 27 28 29 30 30 30 30 31 31
6 6 6 8 12 12 13 16 15 14 15 18 17 17 17 17 17 20 18 18 19 18 20 19 19 21 21 21 21 22 21 23 24 26 26 26 26 27 29 29 30 30 30 30 30
6 6 6 10 12 12 14 14 13 13 16 17 18 18 18 18 18 18 19 19 18 18 19 19 20 21 19 19 19 20 20 21 23 24 24 24 24 26 27 28 28 28 28 29 29
7 6 6 11 12 13 15 12 12 12 16 17 18 18 19 19 18 19 19 18 18 18 18 18 20 19 19 19 20 19 21 21 21 22 22 24 23 26 27 28 28 28 29 29 30
10 7 6 10 11 15 13 12 12 13 17 17 18 18 19 18 18 19 19 19 17 18 18 18 19 18 18 19 20 19 21 21 21 21 22 22 23 25 27 27 28 29 29 30 30
11 12 12 11 10 13 12 11 12 16 16 17 17 17 18 18 18 19 19 20 19 17 18 18 19 19 19 20 20 20 20 20 20 20 20 22 23 25 27 28 29 30 30 30 30
11 12 11 11 15 11 12 14 16 16 17 17 16 17 17 17 17 17 17 18 16 14 17 18 18 19 19 18 20 19 18 18 18 19 18 23 22 24 27 28 28 28 29 29 29
12 12 12 11 12 11 14 16 15 16 16 17 16 17 16 17 17 17 17 17 18 16 16 15 16 17 18 18 18 18 18 18 18 20 21 23 22 24 27 28 28 28 28 29 29
11 11 13 12 11 12 16 16 16 16 15 15 16 16 17 17 17 17 16 17 17 17 14 15 15 18 18 19 19 18 16 19 19 20 22 24 23 25 27 27 27 28 27 28 28
10 14 15 12 11 14 16 14 15 15 15 15 13 15 15 16 16 16 16 17 16 17 16 15 14 17 17 18 18 17 16 13 19 17 19 23 24 24 26 26 27 26 26 27 27
12 16 13 12 12 16 14 16 15 15 15 14 14 15 15 14 16 16 15 16 17 17 17 17 15 16 17 16 17 14 14 15 18 20 21 23 25 27 26 25 25 25 26 26 25
12 16 13 12 16 14 15 14 12 14 15 14 14 15 14 15 14 15 15 15 17 16 15 17 14 15 17 18 18 16 14 14 13 17 21 20 23 26 25 25 24 25 26 26 22
12 14 13 13 13 14 15 14 14 14 14 14 13 14 15 14 12 14 15 16 15 15 15 15 15 15 17 17 18 17 18 15 16 15 17 21 23 25 25 25 24 24 25 27 22
12 13 16 15 13 13 13 13 14 14 14 14 13 14 14 13 14 12 13 14 15 15 14 13 14 14 15 17 17 16 17 18 18 16 18 20 23 24 25 25 24 23 25 26 22
11 12 11 14 13 12 12 12 12 12 14 14 13 13 12 10 13 13 14 14 13 12 12 11 12 14 16 17 17 16 17 17 17 18 18 19 21 23 24 24 23 22 24 26 23
10 9 11 12 12 11 11 13 13 13 13 13 12 13 12 11 12 11 12 11 9 11 10 9 11 14 14 16 17 16 17 17 18 18 18 19 20 22 23 23 22 23 24 25 24
6 5 6 10 11 10 12 12 12 12 13 14 13 11 12 13 14 14 14 13 11 8 9 9 10 13 13 16 17 16 18 18 19 19 19 18 20 22 22 22 22 22 24 25 24

GFSSW_925_temp_033.txt.gz
Temp
7 8 8 8 8 8 8 10 11 12 12 13 13 13 13 13 14 18 21 17 17 17 18 21 23 24 25 28 30 31 29 30 32 32 34 36 35 37 38 38 38 38 38 38 37
7 7 7 7 7 7 8 9 11 12 13 13 13 14 14 11 13 22 16 16 16 17 20 24 26 27 27 27 29 29 30 30 33 34 34 35 35 36 37 36 37 37 37 36 36
7 7 7 7 7 7 9 11 12 12 13 13 13 14 13 11 20 21 17 16 16 16 20 22 23 27 27 28 29 29 30 32 33 34 35 34 33 35 36 36 36 36 36 36 37
7 7 7 7 7 7 9 11 11 12 12 12 13 13 13 13 23 20 17 16 17 17 20 23 25 25 26 28 29 28 30 31 32 33 34 33 33 34 35 36 37 38 38 37 36
7 7 7 7 7 9 11 11 12 12 13 13 13 13 12 21 23 19 18 18 19 20 22 24 24 26 26 28 29 29 30 31 32 31 32 33 32 32 34 36 37 37 37 36 36
6 7 7 7 9 11 12 12 12 12 13 13 13 12 15 22 20 20 19 19 21 21 22 24 24 26 26 27 28 30 30 31 31 31 31 31 31 31 33 35 36 36 36 36 35
6 6 6 7 8 12 12 12 13 13 13 13 13 12 20 22 20 20 21 21 21 20 22 23 23 23 25 25 27 27 27 29 30 31 31 31 29 29 32 34 34 35 35 35 35
7 7 6 7 9 12 13 13 13 13 13 13 12 15 21 20 20 21 21 21 21 21 20 21 21 23 23 25 25 25 27 26 29 30 31 30 28 30 32 32 33 34 35 35 35
9 9 8 7 12 13 13 13 13 13 13 12 13 18 22 20 22 21 20 21 21 21 22 20 21 22 23 23 23 24 25 27 28 30 30 30 29 31 31 32 33 33 34 35 35
8 8 8 7 12 13 14 14 12 12 13 14 17 19 22 22 21 20 21 21 22 22 22 22 22 22 24 23 23 25 26 27 27 30 30 29 30 30 31 31 31 32 33 34 35
7 6 7 7 12 13 13 16 18 18 19 21 21 21 22 21 21 21 21 21 22 22 21 23 22 22 24 25 25 25 25 26 29 31 29 29 30 31 32 31 31 32 33 34 35
7 6 6 10 13 14 14 20 18 18 17 21 21 21 20 20 20 22 21 21 21 20 22 22 21 23 24 23 23 23 23 24 26 28 29 29 29 30 31 32 32 31 32 33 33
7 7 10 12 13 13 18 17 17 17 18 21 21 21 21 21 21 21 22 21 20 20 21 21 22 23 23 22 22 22 22 23 24 26 27 27 26 28 30 31 31 31 32 32 32
9 8 11 13 12 18 18 16 16 16 18 20 20 21 21 22 21 21 22 21 20 20 21 21 22 22 21 21 22 21 23 23 22 23 23 26 24 27 28 29 29 31 31 31 31
11 11 12 13 15 19 17 16 16 16 19 20 21 21 22 21 21 21 22 21 20 20 20 20 21 21 21 22 22 21 23 23 23 22 23 24 24 26 29 29 29 30 31 31 31
11 12 13 13 15 17 16 16 16 18 18 20 21 20 21 22 21 22 21 22 22 20 21 21 22 20 21 22 22 23 22 22 22 22 22 23 24 25 27 28 30 31 31 32 32
12 12 13 14 18 16 16 18 18 19 20 20 20 20 20 21 20 21 20 20 20 18 18 20 20 20 21 20 22 21 20 19 19 19 19 23 23 25 27 29 31 31 32 32 32
12 12 14 15 16 16 17 19 17 20 20 20 19 20 20 20 20 20 20 20 21 20 18 16 16 15 20 20 20 20 20 19 17 19 21 23 21 24 28 29 30 30 30 31 31
13 14 15 16 15 16 18 18 19 19 19 18 18 19 20 21 20 20 19 20 20 20 17 17 16 19 21 21 19 20 19 21 19 19 18 19 21 26 27 29 29 29 30 30 30
11 16 18 15 15 16 18 17 19 19 18 18 17 18 18 19 18 19 19 20 19 20 20 17 16 19 20 21 21 20 21 17 14 16 17 20 22 25 26 27 29 29 29 29 29
12 18 15 15 15 18 16 19 19 19 18 17 17 17 17 17 18 18 18 19 19 19 19 19 18 18 20 19 18 13 15 17 17 17 17 20 21 27 27 28 28 28 28 29 27
14 18 16 15 16 17 18 18 15 17 18 17 17 16 16 17 16 17 17 18 18 18 17 18 17 16 18 21 21 21 18 17 12 14 20 20 20 23 28 29 28 27 27 29 25
15 17 16 15 14 16 18 18 18 17 17 17 15 16 16 15 14 16 18 19 18 17 16 15 15 14 17 20 21 20 19 19 19 18 16 14 16 19 27 26 26 25 27 27 25
15 17 18 16 17 16 17 17 17 18 17 16 15 15 15 16 17 16 17 18 14 12 12 12 13 14 15 18 11 11 14 20 18 15 17 18 18 15 23 27 26 25 25 28 25
16 15 14 16 16 15 15 16 16 16 17 16 16 16 16 14 15 15 16 16 15 13 12 10 11 13 16 18 19 18 19 20 19 20 18 19 19 15 17 21 26 25 25 27 26
14 13 14 13 15 13 13 15 16 16 16 16 15 16 15 12 13 13 14 14 12 11 11 10 11 13 14 16 18 19 20 20 20 21 21 21 20 22 23 24 25 25 25 26 27
8 7 9 11 15 15 14 12 12 13 15 16 15 15 15 16 17 17 17 16 16 12 9 9 10 12 14 17 18 17 20 20 21 21 21 20 22 23 23 24 24 24 25 25 26

GFSSW_925_temp_036.txt.gz
Temp
8 8 8 8 8 8 8 9 10 11 12 12 13 14 14 13 14 16 19 18 17 18 19 21 23 24 25 26 28 30 28 28 29 31 33 36 36 38 39 38 39 39 37 36 38
7 7 7 8 8 8 9 10 11 12 12 13 13 14 13 12 12 18 17 18 19 19 19 23 26 27 26 27 27 28 28 28 31 32 33 35 35 36 36 37 37 38 36 37 36
7 7 7 7 7 8 10 11 12 12 13 13 13 13 13 11 17 20 18 19 18 18 18 21 24 25 26 28 28 27 27 29 31 33 34 34 34 36 35 35 37 37 37 37 37
7 7 7 7 7 9 11 12 12 12 13 13 13 13 13 12 22 20 19 19 19 18 20 23 25 24 25 26 29 27 29 29 30 32 32 32 34 34 34 35 37 38 38 37 37
7 7 7 7 8 10 12 12 12 13 13 13 13 13 13 20 23 20 20 19 20 22 23 25 25 25 25 27 28 28 29 30 31 30 31 32 32 33 34 35 36 37 38 37 36
7 7 7 8 9 11 12 13 13 13 13 13 13 13 15 21 22 22 22 22 23 23 23 24 25 26 25 26 27 28 29 30 31 31 31 31 31 32 33 34 35 35 36 36 35
7 8 8 9 11 12 13 13 13 13 14 14 13 12 17 21 22 23 23 23 23 23 23 23 24 24 25 25 27 27 26 28 29 30 31 31 30 30 33 33 33 34 35 36 36
8 8 7 7 9 12 13 13 14 13 14 14 13 14 19 22 22 23 23 23 23 23 23 22 22 23 23 24 24 25 26 26 28 29 30 30 29 31 32 32 32 33 34 35 35
9 9 10 11 12 13 14 14 14 14 14 14 13 17 22 22 23 22 22 22 22 23 23 23 23 22 23 22 23 24 23 25 27 29 29 29 29 31 32 31 30 31 32 33 34
8 8 10 11 13 14 14 15 14 13 14 15 17 20 22 24 23 22 22 23 23 23 23 23 23 22 23 23 22 24 25 26 26 28 29 29 29 30 31 32 31 31 31 32 33
7 7 9 11 13 14 13 15 18 17 18 21 22 23 23 24 23 23 23 23 24 23 22 24 23 22 24 25 25 25 25 25 26 28 28 29 29 31 31 31 31 31 31 31 31
9 9 10 12 14 15 12 20 20 19 18 22 23 23 22 22 21 23 23 22 22 21 22 23 22 24 25 24 24 24 23 23 24 26 26 27 27 29 31 31 31 31 31 31 32
10 11 12 13 14 14 17 19 19 19 18 22 23 22 23 23 22 22 23 22 21 21 22 21 23 24 24 23 23 23 23 23 23 24 25 25 26 27 29 31 31 31 32 32 31
10 11 12 14 12 19 20 19 19 18 18 21 21 23 23 23 22 23 23 22 21 20 21 21 23 22 23 22 23 21 24 24 23 22 21 25 23 26 28 29 29 30 31 31 31
11 11 13 13 14 20 19 19 18 18 18 22 23 23 23 22 23 23 23 22 20 21 21 20 21 21 21 22 23 22 24 23 23 22 22 23 22 24 27 28 29 30 31 30 30
11 10 13 14 14 18 19 18 18 18 18 22 23 22 22 23 23 23 23 24 23 22 22 21 22 22 21 22 22 22 22 22 22 22 21 22 23 23 26 27 29 30 31 31 31
12 11 12 13 19 18 18 19 18 19 23 22 22 22 22 22 22 23 22 22 21 19 20 20 21 20 19 17 19 19 21 19 19 20 20 23 23 24 25 27 29 29 30 31 32
11 13 13 14 17 17 17 18 17 22 22 22 21 21 21 23 22 22 22 21 22 21 20 18 17 19 18 18 17 16 17 17 17 18 20 22 21 23 25 27 28 29 30 31 31
10 15 14 16 17 17 18 17 18 20 21 20 20 20 21 22 21 21 21 21 21 21 19 18 18 17 18 20 17 18 20 21 18 19 18 19 22 23 25 25 26 28 29 30 30
8 14 18 17 17 17 17 16 19 21 20 19 18 20 19 19 19 20 20 21 21 21 21 19 17 20 21 22 22 21 21 18 18 15 16 19 20 22 24 25 26 27 29 30 30
11 18 17 17 17 17 15 18 20 20 20 18 18 18 18 17 18 19 19 20 20 19 19 19 18 18 19 19 20 20 17 16 16 14 14 16 19 24 20 19 23 27 29 29 29
15 18 17 17 17 16 17 20 18 20 20 19 19 18 17 17 17 18 17 19 20 18 16 17 16 16 17 20 21 21 19 15 15 16 18 17 18 21 16 15 15 25 26 28 29
15 19 18 17 15 17 19 19 20 19 19 19 17 18 17 17 15 17 18 20 18 15 14 13 15 14 16 19 17 17 16 13 14 17 16 16 16 21 12 12 13 14 26 25 20
15 18 19 19 19 18 17 16 18 20 19 18 17 17 17 17 18 17 17 18 16 14 14 12 12 13 14 15 13 12 15 17 18 14 16 18 18 17 11 12 13 15 24 26 26
16 17 16 16 16 16 17 16 16 16 19 19 17 18 17 15 16 15 17 17 17 15 10 10 11 14 15 16 16 17 14 16 16 18 18 18 19 16 14 14 15 17 20 26 25
13 12 12 13 15 16 16 16 15 16 15 15 16 16 16 16 16 16 17 16 16 16 13 11 10 12 12 15 16 16 18 16 16 18 20 21 20 21 17 17 19 20 24 25 26
10 9 9 11 15 17 16 16 14 15 14 16 15 15 15 16 18 18 18 18 17 11 9 9 10 11 13 16 17 16 19 20 21 21 21 20 21 23 21 21 21 24 25 25 26

GFSSW_925_temp_042.txt.gz
Temp
7 7 7 7 7 8 9 11 12 12 12 13 13 12 13 13 13 13 12 18 19 19 19 20 20 21 21 21 23 24 19 19 22 24 26 27 27 29 30 30 31 33 34 30 32
7 7 7 7 7 8 9 10 12 13 12 13 12 12 13 12 11 10 18 18 19 19 19 19 19 20 19 21 21 20 18 21 24 25 25 26 27 28 28 28 29 30 31 32 31
7 7 7 7 7 7 8 9 11 12 13 13 12 13 13 11 11 18 19 19 19 19 18 18 19 19 20 20 21 20 21 23 24 25 26 26 27 28 27 27 27 29 31 30 30
7 7 7 7 8 9 9 9 11 12 13 13 13 12 13 11 18 20 20 20 20 19 18 19 19 19 20 20 21 20 22 23 24 25 25 25 27 27 27 27 29 29 30 30 29
8 8 8 8 8 9 10 11 11 12 13 13 13 12 13 13 15 21 21 21 19 19 18 18 19 19 19 19 20 20 21 22 23 23 24 26 26 26 27 28 29 29 30 29 27
8 8 8 8 7 8 9 12 12 13 13 13 12 12 11 14 21 22 22 20 20 19 20 20 20 20 19 19 18 19 20 20 21 22 23 24 26 27 28 29 29 29 30 29 29
7 8 8 8 7 7 9 12 14 14 14 13 12 11 12 14 22 21 21 21 22 22 22 22 22 20 18 17 19 19 19 19 21 22 23 24 24 25 28 28 28 29 29 29 29
7 9 10 7 7 9 10 14 15 15 14 13 12 11 11 20 21 21 22 22 22 22 22 22 22 20 19 18 18 18 18 17 20 21 23 23 23 25 26 26 27 27 29 29 28
10 10 11 10 10 10 13 15 16 15 15 13 12 11 14 20 21 22 22 22 22 22 22 22 20 18 19 17 14 16 15 17 18 20 22 22 22 25 25 25 26 27 27 28 29
10 11 11 11 11 12 15 16 16 15 14 12 13 13 16 20 22 22 23 22 21 21 20 21 17 16 14 14 14 16 17 18 19 21 21 20 20 22 23 23 23 25 26 27 28
10 11 11 11 12 13 15 16 14 14 14 15 16 16 19 21 23 22 23 22 21 19 18 18 16 15 16 16 18 18 18 18 19 21 21 19 20 20 21 21 21 21 23 25 26
10 11 11 12 14 14 14 11 17 18 14 17 18 18 19 20 20 22 23 21 20 17 18 16 15 18 20 20 19 19 18 18 20 21 21 20 20 21 21 21 21 21 22 23 24
10 11 11 13 15 15 14 16 18 18 14 17 19 19 19 21 20 20 21 21 19 18 18 16 17 19 20 18 18 17 17 17 18 20 20 20 19 20 21 21 21 21 21 21 22
10 11 10 12 14 14 15 17 18 18 12 17 20 21 21 21 20 22 22 20 19 18 18 17 18 19 18 18 17 16 18 18 18 16 15 20 17 19 20 20 20 20 20 20 21
9 10 9 10 13 12 17 17 17 16 14 20 20 23 22 20 21 21 23 20 18 18 17 17 18 17 18 17 18 17 18 17 17 16 15 17 15 18 19 19 20 21 20 20 21
9 11 10 10 12 16 16 17 17 14 15 20 21 20 20 20 20 21 21 21 20 18 18 17 19 19 17 18 18 18 16 15 15 14 15 17 16 18 17 19 20 21 20 22 21
11 12 12 12 14 16 16 15 14 14 21 19 18 19 18 19 20 20 20 19 17 17 16 17 19 18 18 17 17 16 12 10 11 12 14 17 16 18 19 19 16 15 15 15 16
12 14 14 15 16 16 15 12 14 17 18 20 19 19 18 18 18 18 18 16 18 16 14 14 14 18 17 17 15 14 14 11 11 12 13 15 14 17 19 16 15 16 16 16 15
14 15 15 16 16 16 10 11 13 18 19 18 18 17 17 17 17 16 15 17 17 15 14 13 14 17 18 18 17 15 12 15 13 13 12 12 14 16 17 15 15 15 16 16 15
11 12 14 16 16 15 10 13 15 18 19 18 16 17 16 15 15 14 15 17 17 15 14 14 12 16 18 17 17 15 16 13 10 12 12 13 14 15 15 14 14 15 15 15 15
10 11 17 17 17 9 10 12 16 18 19 18 17 16 15 14 15 14 15 16 16 15 14 13 12 14 15 14 14 14 13 12 11 11 11 11 13 13 13 12 12 14 15 14 15
7 12 17 17 11 8 11 16 16 17 17 18 17 16 15 15 14 14 14 15 16 15 14 13 10 10 14 16 16 15 13 12 9 11 11 11 13 14 12 12 13 14 14 14 15
6 7 16 17 8 9 12 15 16 16 16 15 15 16 16 14 13 14 15 16 16 14 13 12 10 11 13 15 15 14 14 12 11 9 9 12 12 14 12 13 15 13 13 14 14
6 9 8 8 9 12 11 12 14 16 16 14 14 14 13 13 13 12 13 15 15 15 15 12 10 12 11 13 13 11 13 14 13 10 11 13 13 14 15 14 14 13 15 15 14
6 7 8 7 8 8 10 12 13 13 14 14 13 13 12 11 11 11 13 13 14 14 11 11 11 11 12 12 13 13 13 13 13 12 11 13 13 15 15 15 15 15 16 18 18
6 5 5 5 7 9 10 11 12 13 13 13 12 12 11 11 11 11 11 11 11 12 10 10 10 11 10 13 12 13 13 13 14 14 14 14 14 17 17 18 17 16 17 17 19
8 8 7 6 6 8 9 9 10 11 12 14 12 11 11 12 12 12 12 12 11 11 8 9 9 10 11 12 12 12 13 14 13 14 14 13 15 14 14 15 16 17 18 19 19

GFSSW_925_temp_045.txt.gz
Temp
7 7 7 7 7 7 8 8 8 8 10 11 12 13 13 13 13 12 11 19 19 18 18 19 20 20 20 20 22 22 19 19 22 23 25 25 25 27 28 27 27 28 29 29 26
7 7 7 7 7 7 7 7 8 8 9 11 13 13 13 12 10 10 20 19 18 18 18 18 18 19 18 20 20 20 17 20 23 24 24 24 25 26 26 25 26 27 28 30 28
8 8 8 8 8 7 7 7 8 8 9 11 13 13 13 12 11 17 20 20 19 18 18 18 18 18 19 20 20 19 20 22 23 24 24 24 25 26 25 25 26 26 26 28 30
8 8 8 8 8 8 7 7 7 8 10 12 13 13 13 12 18 20 21 20 19 18 17 18 18 18 19 19 20 19 20 22 22 23 23 23 25 25 25 26 27 26 27 27 27
7 7 8 8 8 8 7 7 8 10 13 13 13 12 12 12 14 22 21 19 19 18 17 18 18 18 18 18 18 19 20 20 21 20 21 23 23 24 25 26 27 27 27 26 26
8 8 8 7 7 8 8 8 8 11 13 13 12 12 11 15 21 21 20 19 19 18 18 17 19 19 18 18 17 18 18 18 20 20 20 22 23 24 26 26 27 27 26 26 26
10 10 10 8 7 7 8 10 12 13 13 13 12 10 11 14 20 20 20 20 20 20 19 20 20 20 18 18 18 18 18 17 19 21 21 23 22 23 25 26 25 26 27 26 26
10 10 10 9 8 8 10 14 14 14 14 13 12 10 11 19 19 20 21 20 21 21 22 22 21 19 19 18 17 17 16 16 18 19 22 21 22 24 24 24 25 26 27 27 26
9 10 11 10 10 10 14 15 15 15 14 13 11 11 13 19 20 22 21 22 22 22 22 21 20 18 18 15 14 14 15 17 17 19 19 20 20 22 22 22 22 22 23 25 25
9 10 11 11 12 13 16 16 15 14 12 12 12 13 16 19 20 22 22 22 21 20 19 19 14 16 13 13 14 15 16 16 17 19 20 19 19 19 21 21 21 21 21 22 23
10 10 10 11 13 14 16 15 13 13 14 15 15 15 17 19 21 22 22 22 20 18 17 17 15 15 16 15 16 16 16 16 17 18 18 18 19 19 19 20 20 20 20 20 21
9 9 9 11 13 15 15 13 16 16 14 15 16 16 17 18 18 19 22 20 19 17 17 15 15 17 18 18 17 17 17 16 16 18 18 18 18 19 19 20 20 20 19 20 20
8 8 8 12 14 14 14 15 16 16 13 15 17 17 17 18 17 18 20 19 18 18 17 15 17 18 18 17 17 16 16 16 15 17 17 17 18 18 19 20 20 19 19 18 19
7 6 7 12 13 13 14 16 17 16 12 17 18 19 20 20 19 21 21 19 19 17 17 17 17 18 18 17 17 16 17 17 16 15 14 18 15 17 18 18 19 18 18 18 18
6 6 8 9 12 13 16 16 16 15 14 19 20 21 20 19 20 21 21 19 18 17 17 17 18 17 16 17 17 16 17 16 15 14 14 15 13 17 17 18 18 18 18 16 16
8 9 11 11 12 15 16 16 16 13 14 19 20 20 19 19 19 20 19 20 19 18 17 16 18 17 17 17 17 17 15 14 12 12 11 14 15 17 18 18 18 18 16 16 15
11 13 14 13 14 16 15 13 12 12 19 18 18 19 17 17 17 18 18 18 16 16 16 16 17 17 17 16 16 14 11 10 11 11 12 14 13 16 16 17 16 16 15 15 14
14 14 14 15 16 15 15 12 13 16 17 19 18 18 16 16 17 17 16 15 15 15 13 13 13 16 17 17 15 13 12 10 11 12 13 14 12 14 17 15 15 15 14 14 14
15 15 15 16 16 15 10 11 12 15 17 17 18 17 17 16 16 15 14 15 15 14 14 12 13 16 16 17 15 14 12 13 12 11 10 12 13 15 15 16 15 14 15 14 14
12 12 15 16 16 14 9 13 14 16 16 18 16 17 15 15 15 14 14 16 15 15 14 13 11 14 16 16 16 14 14 14 10 11 12 12 13 14 15 15 15 14 14 14 15
11 11 15 16 16 9 9 12 15 17 16 17 16 15 15 14 14 14 14 15 16 15 14 12 11 13 14 13 13 13 12 11 10 10 10 12 13 13 14 13 13 14 14 13 14
6 11 15 16 10 6 11 14 15 16 16 15 16 16 14 14 13 13 13 15 15 15 13 12 10 9 13 15 15 14 13 12 10 10 9 11 13 16 13 12 12 13 14 14 14
6 6 14 15 7 8 10 13 15 15 15 14 14 13 13 13 12 13 14 15 15 14 13 12 10 11 12 13 14 14 14 13 11 10 10 11 13 15 12 12 13 12 14 15 14
6 8 7 6 7 10 9 11 13 15 14 14 14 13 12 12 12 11 12 13 13 13 15 12 10 11 11 12 12 12 12 12 10 11 11 11 13 14 14 14 14 14 13 13 14
4 6 6 6 7 7 8 10 12 12 13 13 13 13 12 10 10 10 11 12 12 13 11 11 10 11 12 12 12 12 12 12 12 12 11 13 12 13 14 13 14 15 15 14 16
5 5 4 4 6 7 9 10 10 11 11 11 11 11 10 9 10 11 10 10 9 11 9 10 9 11 11 12 13 12 13 13 13 13 12 12 12 14 14 12 13 13 14 16 17
6 6 7 5 5 7 7 8 8 8 10 11 10 9 9 10 10 10 10 11 10 10 8 9 10 10 11 12 11 11 13 13 13 13 12 11 12 11 10 11 11 11 13 14 13

GFSSW_925_temp_048.txt.gz
Temp
8 8 8 8 8 8 7 7 8 8 9 11 13 13 13 13 13 12 10 18 18 18 18 18 19 19 20 20 21 21 18 17 22 23 24 25 25 26 26 26 25 27 28 27 24
8 8 8 8 8 8 8 8 7 8 8 11 13 13 13 13 11 10 19 19 18 18 18 17 17 18 17 19 19 20 16 19 22 24 23 24 25 24 25 24 25 25 26 27 27
7 8 8 8 8 8 8 7 7 8 8 10 13 13 13 12 11 18 20 19 18 18 17 17 17 18 19 19 19 19 17 21 23 23 23 23 23 25 24 24 25 24 25 27 26
7 7 7 7 8 8 8 8 8 8 9 11 12 12 13 11 17 20 20 19 19 18 17 17 17 17 17 18 18 19 19 21 22 22 22 22 23 24 24 24 25 24 24 25 25
8 7 8 8 8 8 8 7 8 8 10 12 12 12 12 13 14 19 20 19 18 18 17 17 18 17 17 17 18 18 19 19 19 19 20 21 22 23 23 24 25 25 24 24 24
8 8 8 8 8 8 8 8 7 9 12 12 11 11 11 15 18 20 20 20 18 18 17 16 18 18 17 17 17 18 18 18 19 20 20 21 22 23 24 25 25 25 24 24 23
8 8 8 8 8 8 7 8 11 12 13 12 11 10 10 14 19 19 19 20 20 19 18 18 19 19 17 17 17 18 17 17 18 19 20 20 20 21 23 25 25 24 24 24 24
8 8 7 8 8 7 8 10 13 14 14 13 11 9 11 19 19 20 20 20 20 19 19 21 20 18 18 18 15 16 15 16 18 19 20 20 20 22 21 23 23 23 23 23 22
7 7 7 8 9 8 10 12 13 14 14 12 10 11 14 18 19 21 21 20 21 20 20 20 19 16 15 15 13 13 15 16 17 18 19 19 18 21 20 21 21 22 23 23 21
7 7 6 8 9 12 13 14 13 13 12 12 11 12 16 18 19 20 21 21 20 20 18 17 13 14 12 13 13 15 15 15 16 17 17 16 16 18 19 19 19 20 21 21 21
6 6 6 8 10 12 14 13 12 12 12 15 15 15 16 18 19 20 21 21 19 17 16 16 14 14 16 14 15 16 15 15 16 17 16 16 16 17 18 18 18 19 20 20 20
7 6 6 8 11 14 14 13 14 14 12 14 14 15 16 17 17 18 20 20 19 17 17 14 15 16 17 17 16 16 16 15 15 17 17 16 16 18 18 18 19 19 19 19 19
6 6 6 9 12 14 14 14 15 15 12 15 16 16 16 17 16 17 19 18 18 17 16 15 17 17 17 17 17 16 16 15 15 15 15 15 17 17 18 18 19 18 18 18 18
6 6 7 12 12 13 14 15 16 15 12 17 18 19 18 18 18 19 20 19 18 16 16 15 17 18 17 17 16 16 16 16 15 14 12 16 12 16 16 17 17 17 17 17 16
8 8 11 12 12 13 15 15 16 15 13 19 19 21 19 19 19 20 20 19 17 16 16 16 18 17 16 16 16 15 17 16 15 13 12 13 12 15 16 16 17 18 19 16 15
11 12 13 13 13 15 15 15 15 13 14 17 19 19 18 18 19 19 19 19 18 16 16 15 17 17 16 17 16 16 15 13 11 10 10 12 12 13 15 16 16 17 16 16 15
13 13 14 13 13 15 15 13 12 12 17 17 17 18 17 16 17 17 16 14 15 16 15 16 17 17 17 16 15 14 11 10 11 11 12 13 12 14 15 17 17 17 15 15 14
15 14 15 15 15 15 14 12 13 15 16 17 18 17 16 16 16 16 15 14 15 15 12 13 14 15 16 16 15 13 11 10 11 11 13 14 11 13 15 15 15 15 14 14 13
15 15 15 15 15 15 10 11 12 15 16 15 16 16 15 16 16 14 14 14 15 14 13 12 13 16 16 15 15 13 11 12 11 10 7 12 12 14 15 15 14 14 14 13 13
13 13 14 14 14 14 9 12 14 16 15 16 15 16 14 14 14 14 14 15 14 15 14 13 11 13 14 16 15 13 13 11 8 10 11 12 12 13 14 15 14 14 14 13 12
12 11 14 15 14 9 9 11 13 16 16 15 15 14 14 14 13 13 13 14 14 14 13 12 10 12 14 13 13 12 11 10 10 9 10 12 13 13 14 14 13 14 14 12 12
7 12 14 15 10 5 10 12 14 15 15 14 14 15 13 14 13 12 12 13 15 14 13 11 9 9 11 14 13 12 12 10 11 11 9 11 13 14 13 13 12 12 12 12 13
6 6 13 14 7 8 9 11 13 14 14 13 13 13 13 13 12 12 13 14 14 13 12 11 10 9 11 13 13 13 13 12 10 10 10 10 13 15 13 13 13 11 12 14 14
5 8 7 5 6 9 8 10 12 13 13 13 13 13 12 11 11 11 12 13 12 12 15 12 9 10 10 12 11 11 12 12 11 10 11 11 11 13 13 13 13 12 13 13 13
3 5 5 7 6 6 7 8 11 11 11 11 12 12 11 10 10 9 10 11 11 12 11 10 10 11 11 11 11 12 11 11 11 11 11 12 12 13 13 12 12 11 12 12 12
4 4 3 4 5 6 8 9 9 9 9 10 10 9 9 8 9 9 9 9 9 10 9 8 10 10 10 11 11 11 12 12 12 12 12 11 11 13 12 11 11 11 11 11 13
5 5 5 4 4 6 6 8 8 7 8 9 9 8 8 9 9 8 8 9 9 9 8 9 10 10 11 11 10 11 12 12 13 13 11 11 13 12 11 10 10 10 10 10 12